Regional Weather Roundup
Issued by NWS

Home | Current Version | Previous Version | Graphics & Text | Print | Product List | Glossary On
Versions: 1 2 3 4 5 6 7 8 9 10 11 12 13 14 15 16 17 18 19 20 21 22 23 24 25 26 27 28 29 30 31 32 33 34 35 36 37 38 39 40 41 42 43 44 45 46 47 48 49 50
000
ASUS43 KBIS 280102
RWRND

NORTH DAKOTA REGIONAL WEATHER ROUNDUP
NATIONAL WEATHER SERVICE BISMARCK ND
800 PM CDT TUE JUN 27 2017

NOTE: "FAIR" INDICATES FEW OR NO CLOUDS BELOW 12,000 FEET WITH NO
SIGNIFICANT WEATHER AND/OR OBSTRUCTIONS TO VISIBILITY.


NDZ001>003-009>011-017-280200-
NORTHWEST NORTH DAKOTA

CITY           SKY/WX    TMP DP  RH WIND       PRES   REMARKS
WILLISTON      CLOUDY    78  54  43 N17       29.59R
MINOT          CLOUDY    82  58  43 SE5       29.50F
MINOT AFB      PTSUNNY   79  62  56 CALM      29.49F
$$

NDZ018>021-031>035-040>046-280200-
SOUTHWEST NORTH DAKOTA

CITY           SKY/WX    TMP DP  RH WIND       PRES   REMARKS
BISMARCK       CLOUDY    82  59  45 SE12      29.46F
DICKINSON      CLOUDY    80  44  27 NW9       29.54R
GARRISON         N/A     79  65  62 VRB5      29.50F
HETTINGER ARPT CLOUDY    82  47  29 NW28G36   29.57R
$$

NDZ004>008-012>016-024-026-027-054-280200-
NORTHEAST NORTH DAKOTA

CITY           SKY/WX    TMP DP  RH WIND       PRES   REMARKS
GRAND FORKS    PTSUNNY   76  49  38 SE20      29.63F
GRND FRKS AFB  CLOUDY    75  50  41 SE12      29.63F
DEVILS LAKE    MOSUNNY   76  52  43 SE15      29.59S
$$

NDZ022-023-025-028>030-036>039-047>053-280200-
SOUTHEAST NORTH DAKOTA

CITY           SKY/WX    TMP DP  RH WIND       PRES   REMARKS
FARGO          CLOUDY    73  49  42 SE17      29.67S
JAMESTOWN      CLOUDY    77  49  37 SE13      29.59F
$$




USA.gov is the U.S. government's official web portal to all federal, state and local government web resources and services.